User: anonymous   Login
Location: Igon
(43.1667°N, 0.2333°W)
Time: 07:12:59
(UTC+00:00)
Language:

OBJECT A - Orbit

View from above orbital plane
View from above orbital plane
View from above satellite
View from above satellite

Ground track
Ground track

The orbit data is extracted from the following two-line orbital elements,

1 46929U 20085A   21169.48765877  .00002169  00000-0  97166-4 0  9997
2 46929  97.3953 306.1136 0010122 280.0982 146.7779 15.22284122 31995
Epoch (UTC): 18 June 2021 11:42:13
Eccentricity: 0.0010122
inclination: 97.3953°
perigee height: 492 km
apogee height: 506 km
right ascension of ascending node: 306.1136°
argument of perigee: 280.0982°
revolutions per day: 15.22284122
mean anomaly at epoch: 146.7779°
orbit number at epoch: 3199

The dashed part of the orbit path shows where the satellite is in the earth's shadow,  

DLR